Regional Weather Roundup
Issued by NWS

Home | Current Version | Previous Version | Graphics & Text | Print | Product List | Glossary Off
Versions: 1 2 3 4 5 6 7 8 9 10 11 12 13 14 15 16 17 18 19 20 21 22 23 24 25 26 27 28 29 30 31 32 33 34 35 36 37 38 39 40 41 42 43 44 45 46 47 48 49 50

000
ASUS43 KMPX 180110
RWRMN
WEATHER ROUNDUP FOR MINNESOTA
NATIONAL WEATHER SERVICE TWIN CITIES/CHANHASSEN MN
700 PM CST TUE JAN 17 2017


NOTE: "FAIR" INDICATES FEW OR NO CLOUDS BELOW 12,000 FEET WITH NO
SIGNIFICANT WEATHER AND/OR OBSTRUCTIONS TO VISIBILITY. N/A MEANS
CURRENT SKY AND/OR WEATHER CONDITIONS ARE NOT AVAILABLE.

MNZ060>063-068>070-180200-
   Twin Cities Metro

CITY           SKY/WX    TMP DP  RH WIND       PRES   REMARKS
TWIN CITIES    CLOUDY    33  29  85 W9        29.99S WCI  25
ST PAUL        CLOUDY    33  32  96 SW5       30.00S WCI  29
CRYSTAL        CLOUDY    32  28  85 W8        29.98S WCI  25
BLAINE         CLOUDY    34  34 100 SW5       29.98S WCI  30
LAKEVILLE      CLOUDY    30  30 100 W7        29.99S WCI  23
EDEN PRAIRIE   CLOUDY    32  30  92 SW9       29.98S FOG     WCI  24
SOUTH ST PAUL  CLOUDY    33  32  96 SW5       29.99S WCI  29
LAKE ELMO      CLOUDY    34  32  93 SW8       29.99S FOG     WCI  27
$$
MNZ001>005-007-008-013>017-022>024-027-028-180200-
   Northwest Minnesota

CITY           SKY/WX    TMP DP  RH WIND       PRES   REMARKS
BEMIDJI        CLOUDY    27  20  75 S7        29.81F WCI  19
HALLOCK        CLOUDY    19  16  86 S23       29.69S WCI   2
ROSEAU         CLOUDY    25  19  80 S20       29.69F WCI  11
WARROAD        CLOUDY    27  19  74 S10G17    29.69F WCI  17
THIEF RVR FALL CLOUDY    22  18  85 S20       29.75F WCI   7
CROOKSTON      CLOUDY    19  16  86 S23       29.77F WCI   2
FOSSTON        CLOUDY    23  18  80 S21G28    29.79F WCI   8
DETROIT LAKES  CLOUDY    23  19  86 S8        29.87F WCI  14
MOORHEAD       CLEAR     18  14  86 S17       29.86F WCI   2
PARK RAPIDS    CLOUDY    18  11  74 S7        29.86F WCI   9
MAHNOMEN       FAIR      23  19  83 S16       29.82F WCI  10
$$
MNZ006-009>011-018-025>026-180200-
   North Central Minnesota

CITY           SKY/WX    TMP DP  RH WIND       PRES   REMARKS
BAUDETTE       CLOUDY    26  20  77 S12       29.73F WCI  16
FLAG ISLAND    CLOUDY    18  14  86 S12       29.68F WCI   5
INTL FALLS     CLEAR     26  16  65 VRB5      29.78F WCI  20
WASKISH        CLOUDY    25  18  74 S3        29.78F
BIG FORK       CLOUDY    25  16  68 S6        29.82F WCI  18
LONGVILLE      CLEAR     27  16  63 S6        29.87F WCI  20
GRAND RAPIDS   CLOUDY    28  16  60 S5        29.88S WCI  23
CRANE LAKE     CLOUDY    21  18  86 CALM      29.84S
ORR            CLOUDY    27  16  63 CALM      29.80F
COOK           CLOUDY    27  16  63 SW3       29.83F
WALKER         FAIR      25  18  74 SW8       29.84F WCI  17
$$
MNZ012-019>021-037-180200-
   Northeast Minnesota

CITY           SKY/WX    TMP DP  RH WIND       PRES   REMARKS
DULUTH         CLEAR     31  23  72 SW7       29.87F WCI  24
ELY            CLOUDY    27  18  69 SW3       29.83S
HIBBING        CLOUDY    26  13  57 VRB5      29.85F WCI  20
EVELETH        CLOUDY    24  12  62 SW8       29.87S WCI  14
DULUTH HARBOR  PTCLDY    28  27  93 CALM      29.91F
TWO HARBORS    CLOUDY    28  25  86 W3        29.86F HAZE
SILVER BAY     CLEAR     25  23  93 CALM      29.86F
GRAND MARAIS     N/A     34  31  88 SW12      29.88F WCI  25
G MARAIS ARPRT FOG       25  21  86 S7        29.83F VSB 1/4 WCI  17
$$
MNZ029>031-032-039>041-046>048-054>057-064-180200-
   West Central Minnesota

CITY           SKY/WX    TMP DP  RH WIND       PRES   REMARKS
FERGUS FALLS   CLOUDY    18  14  86 S10       29.95F WCI   6
WHEATON        CLOUDY    25  21  86 SE9       29.94F WCI  15
MORRIS         CLOUDY    14  10  85 SE8       29.93F WCI   3
ALEXANDRIA     CLOUDY    16  12  84 SW6       29.93R WCI   7
ELBOW LAKE     FAIR      15  13  92 SE10      29.92S FOG     WCI   2
WADENA         CLOUDY    18  12  79 SW3       29.89F
GLENWOOD       CLOUDY    14  10  85 S8        29.94S WCI   3
APPLETON       CLOUDY    21  18  86 S6        29.96R WCI  14
ORTONVILLE     CLOUDY    18  14  86 CALM      29.94S
MADISON        CLOUDY    18  16  93 S6        29.96S WCI   9
WILLMAR        FAIR      14  12  92 CALM      29.97F
$$
MNZ033>034-036-042>043-049>051-058-059-180200-
   Central Minnesota

CITY           SKY/WX    TMP DP  RH WIND       PRES   REMARKS
ST CLOUD       CLOUDY    26  25  96 SW12      29.96S WCI  16
SAUK CENTRE    FAIR      15  11  84 S7        29.94R WCI   5
PAYNESVILLE    CLOUDY    19  19 100 S6        29.96F WCI  11
AITKIN         CLOUDY    28  16  59 S5        29.89S WCI  23
PINE RIVER     CLEAR     25  16  68 CALM      29.93S
BRAINERD       CLOUDY    23  14  68 S6        29.91S WCI  16
STAPLES        CLOUDY    19  12  73 S5        29.90F WCI  13
LONG PRAIRIE   FAIR      18  12  79 S5        29.93S WCI  11
LITTLE FALLS   CLOUDY    23  19  86 S6        29.94S WCI  16
LITCHFIELD     FOG       21  21 100 CALM      29.98S VSB 1
BUFFALO        MOCLDY    29  26  90 SW7       29.99S WCI  22
MAPLE LAKE     CLOUDY    28  27  96 SW6       29.99S FOG     WCI  22
HUTCHINSON     CLOUDY    26  26  98 S5        29.99F FOG     WCI  20
$$
MNZ037-044-045-052-053-180200-
   East Central Minnesota

CITY           SKY/WX    TMP DP  RH WIND       PRES   REMARKS
PRINCETON      CLOUDY    30  28  93 S6        29.96F FOG     WCI  24
MORA             N/A     27  23  86 S10       29.97S FOG     WCI  17
CAMBRIDGE      CLOUDY    32  27  80 S3        29.95F HAZE
RUSH CITY      CLOUDY    32  28  86 SW9       29.96S WCI  24
MOOSE LAKE     CLOUDY    28  25  86 S6        29.89F WCI  22
HINCKLEY       FAIR      27  27 100 SW5       29.95S WCI  21
CLOQUET        CLEAR     30  21  69 SW6       29.88F WCI  24
MCGREGOR       CLOUDY    27  18  69 S3        29.90S
$$
MNZ071>073-080-081-089-090-097-098-180200-
   Southwest Minnesota

CITY           SKY/WX    TMP DP  RH WIND       PRES   REMARKS
MONTEVIDEO     CLOUDY    21  18  86 SW6       29.98S WCI  14
GRANITE FALLS  CLOUDY    18  16  90 S8        29.98F WCI   8
CANBY            N/A     28  22  81 SW13      29.96S WCI  17
MARSHALL       CLOUDY    25  22  88 SW13      29.96F WCI  14
REDWOOD FALLS  CLOUDY    21  18  88 S5        29.98F WCI  15
OLIVIA         CLOUDY    21  18  86 S6        29.98S WCI  14
PIPESTONE      CLOUDY    25  21  86 S8        29.96F WCI  16
WINDOM           N/A     28  27  93 SW5       29.99S WCI  23
WORTHINGTON    CLOUDY    27  25  92 SW12      29.99F WCI  17
JACKSON        CLEAR     28  27  93 SW3       30.00F
TRACY          CLOUDY    28  25  87 SW15      29.96F WCI  17
SLAYTON        CLOUDY    26  23  89 SW8       29.98F WCI  17
$$
MNZ065>067-074>077-082>085-091>093-180200-
   South Central Minnesota

CITY           SKY/WX    TMP DP  RH WIND       PRES   REMARKS
MANKATO        CLOUDY    28  28 100 SW9       30.01S FOG     WCI  20
NEW ULM        CLOUDY    28  27  93 CALM      29.99F
ST JAMES       CLEAR     27  27 100 S5        30.02S WCI  21
FAIRMONT       CLEAR     28  27  96 SW6       30.02F WCI  22
GLENCOE        CLOUDY    28  28 100 SW5       29.99S FOG     WCI  22
FARIBAULT        N/A     32  30  93 SW7       30.00F FOG     WCI  26
OWATONNA       FOG       30  30 100 W5        30.00S VSB 3/4 WCI  25
WASECA         FOG       30  30 100 SW9       30.02S VSB 1/4 WCI  22
ALBERT LEA     FOG       30  30 100 CALM      30.01R VSB 1/4
$$
MNZ078>079-086>088-094>096-180200-
   Southeast Minnesota

CITY           SKY/WX    TMP DP  RH WIND       PRES   REMARKS
ROCHESTER      CLOUDY    31  31 100 NW10      29.99S FOG     WCI  22
RED WING       CLOUDY    34  32  93 W7        29.99S FOG     WCI  28
STANTON        CLOUDY    34  32  93 W6        29.98F WCI  29
DODGE CENTER   CLOUDY    30  30 100 CALM      29.99S FOG
WINONA         MOCLDY    34  32  93 CALM      30.00F
AUSTIN         FOG       32  30  93 W5        30.00S VSB 1/2 WCI  27
PRESTON        CLOUDY    32  31  96 NW10      30.00S FOG     WCI  24
$$
ABBREVIATIONS USED IN REMARKS
   TC - TEMPERATURES IN CELSIUS
  WCI - WIND CHILL INDEX
   HX - HEAT INDEX
  VSB - VISIBILITY
$$



USA.gov is the U.S. government's official web portal to all federal, state and local government web resources and services.